Regional Weather Roundup
Issued by NWS

Home | Current Version | Previous Version | Text Only | Print | Product List | Glossary Off
Versions: 1 2 3 4 5 6 7 8 9 10 11 12 13 14 15 16 17 18 19 20 21 22 23 24 25 26 27 28 29 30 31 32 33 34 35 36 37 38 39 40 41 42 43 44 45 46 47 48

000
ASUS45 KBOU 011107
RWRCO

WEATHER ROUNDUP FOR COLORADO
NATIONAL WEATHER SERVICE DENVER/BOULDER CO
500 AM MDT WED OCT 01 2014

NOTE: "FAIR" INDICATES FEW OR NO CLOUDS BELOW 12000 FEET WITH NO
SIGNIFICANT WEATHER AND/OR OBSTRUCTIONS TO VISIBILITY.

COZ001>005-013-030-031-011200-
...NORTHWEST COLORADO...

CITY           SKY/WX    TMP DP  RH WIND       PRES   REMARKS
CRAIG          CLOUDY    43  40  89 CALM      29.96S
HAYDEN         CLOUDY    43  37  81 SE6       29.96F
MEEKER         LGT RAIN  42  39  89 S3        29.96S
MOUNT WERNER   NOT AVBL
STEAMBOAT SPGS CLOUDY    40  39  97 E3        29.97F
WALDEN         CLOUDY    36  32  87 S8        29.98F
$$

COZ006>008-011-011200-
...WEST CENTRAL VALLEYS...

CITY           SKY/WX    TMP DP  RH WIND       PRES   REMARKS
GRAND JUNCTION MOCLDY    46  41  82 CALM      29.88S
MONTROSE       CLOUDY    47  41  80 S9        29.95F
EAGLE          CLOUDY    39  39 100 CALM      30.01S
RIFLE          CLOUDY    45  40  82 SE5       29.93F
DELTA          RAIN      50  43  75 NE10      29.92F
NUCLA          CLOUDY    45  41  87 E9        29.97S
$$

COZ017>023-064>068-011200-
...SOUTHWEST COLORADO...

CITY           SKY/WX    TMP DP  RH WIND       PRES   REMARKS
DURANGO        PTCLDY    38  36  92 E3        30.00S
CORTEZ         CLOUDY    41  39  93 CALM      29.95S
PAGOSA SPRINGS PTCLDY    36  36 100 CALM      30.05S
TELLURIDE      MOCLDY   N/A N/A N/A E5        30.05F
WOLF CREEK PAS CLEAR     27  27 100 SW16      30.17S WCI  14
$$

COZ009-010-012-014-032>034-037-058>063-011200-
...CENTRAL COLORADO...

CITY           SKY/WX    TMP DP  RH WIND       PRES   REMARKS
ASPEN          CLOUDY    37  33  85 S3        29.99F
BUENA VISTA    PTCLDY    31  28  88 CALM      30.03S
COPPER MTN     PTCLDY    32  25  74 W6        30.13F WCI  26
BERTHOUD PASS  CLOUDY    23  21  93 NW17      30.14S WCI   9
COTTONWOOD PAS PTCLDY    39  28  65 CALM      30.07S
GUNNISON       MOCLDY    34  28  80 CALM      30.06F
KREMMLING      CLOUDY    37  36  93 CALM      30.02S
LEADVILLE      PTCLDY    29  27  92 CALM      30.05F
MONARCH PASS   FOG       28  28 100 MISG      30.23F VSB<1/4
SALIDA         PTCLDY    40  32  72 N6        30.08F
SUNLIGHT       CLOUDY    34  34 100 CALM      30.09F
WILKERSON PASS NOT AVBL
$$

COZ069>075-011200-
...SAN LUIS VALLEY/SANGRE DE CRISTO MOUNTAINS...

CITY           SKY/WX    TMP DP  RH WIND       PRES   REMARKS
ALAMOSA        MOCLDY    31  28  89 S3        30.03S
LA VETA PASS   PTCLDY    34  30  86 S8        30.10R WCI  27
SAGUACHE       MOCLDY    36  32  87 NW13      30.05S
$$

COZ035-036-038>040-011200-
...NORTHERN COLORADO FRONT RANGE...

CITY           SKY/WX    TMP DP  RH WIND       PRES   REMARKS
DENVER INTL AP MOCLDY    42  37  82 S5        29.87S
DMNS CITY PARK   N/A     46  38  73 S3        29.87S
AURORA         MOCLDY    45  35  66 S7        29.89S
FRONT RANGE AP PTCLDY    45  39  81 S6        29.89R
ERIE MUNI ARPT MOCLDY    42  39  88 CALM      29.87R
BOULDER MUN AP MOCLDY    46  37  71 CALM      29.86S
CENTENNIAL     MOCLDY    44  34  67 SE6       29.89S
BROOMFIELD     MOCLDY    52  34  50 CALM      29.88S
FORT COLLINS   MOCLDY    45  41  87 CALM      29.88S
LONGMONT       MOCLDY    46  39  77 CALM      29.89R
$$

COZ041-046-047-076>085-087-088-011200-
...PIKES PEAK/PALMER DIVIDE AND SOUTHERN FOOTHILLS...

CITY           SKY/WX    TMP DP  RH WIND       PRES   REMARKS
COLO. SPRINGS  MOCLDY    48  34  58 SW8       29.93R
A. F. ACADEMY  MOCLDY    44  29  54 E3        29.94R
ELLICOTT       NOT AVBL
FALCON         MOCLDY    44  31  60 W8        29.96R
FORT CARSON    MOCLDY    50  34  53 SW6       29.90S
LIMON          CLEAR     40  38  93 N8        29.89S
MONUMENT HILL  PTCLDY    36  30  80 SW7       29.94R
TRINIDAD       CLEAR     43  33  68 W5        29.92R
$$

COZ042>045-048>051-090-091-011200-
...NORTHEAST COLORADO...

CITY           SKY/WX    TMP DP  RH WIND       PRES   REMARKS
GREELEY ARPT   MOCLDY    45  37  76 N6        29.88R
AKRON          CLEAR     48  39  71 N13       29.85S
BURLINGTON     CLEAR     47  42  83 NW8       29.84R
WRAY           CLEAR     48  44  88 MISG      29.82R
STERLING       CLEAR     50  43  76 NE3       29.83S
HOLYOKE        CLEAR     54  45  71 NW6       29.82S
FORT MORGAN    CLEAR     44  40  89 CALM      29.85F
$$

COZ086-089-092>099-011200-
...SOUTHEAST COLORADO...

CITY           SKY/WX    TMP DP  RH WIND       PRES   REMARKS
PUEBLO         MOCLDY    47  36  65 SW5       29.87R
LA JUNTA       PTCLDY    49  37  63 W12       29.85R
LAMAR          CLEAR     45  43  93 W6        29.79R
SPRINGFIELD      N/A     47  36  65 NW7       29.82S
$$



USA.gov is the U.S. government's official web portal to all federal, state and local government web resources and services.